Dewpoint
69 69 70 70 62 61 46 47 49 51 50 53 54 54 55 57 53 55 67 68 70 71 72 73 76 75 75 74 75 77 76 75 75 75 76 76 76 76 75 75 75 75 75 75 75 75 75 75 74
67 67 72 68 59 48 48 49 52 52 51 53 54 55 57 57 61 64 65 68 70 70 71 73 76 76 74 75 75 76 75 75 75 75 76 76 76 76 76 75 76 76 76 76 75 75 74 74 74
68 69 63 62 58 47 47 52 54 55 52 52 52 53 55 59 62 63 66 68 69 70 71 73 75 75 74 74 76 76 75 75 75 75 75 76 76 76 76 76 75 76 75 75 75 75 75 74 73
70 70 68 60 54 49 48 53 54 51 51 53 54 54 59 63 63 63 66 68 69 71 72 75 75 74 75 75 76 76 76 75 75 75 75 76 75 76 76 75 76 76 75 75 75 73 72 72 73
71 69 61 57 53 50 52 53 53 51 52 53 55 54 55 61 63 65 66 68 69 71 72 73 76 75 75 75 75 76 75 76 76 75 75 75 76 76 76 75 75 76 75 75 74 73 72 71 72
67 64 58 55 50 50 51 55 53 52 53 54 55 54 55 59 63 65 66 68 69 70 72 72 76 76 75 75 75 75 75 75 75 75 75 75 75 76 77 77 76 75 76 75 74 73 72 71 71
65 62 58 54 52 54 52 55 52 52 52 53 55 54 56 56 62 63 64 66 69 70 71 73 73 74 75 75 75 76 75 75 75 74 75 75 75 75 75 76 77 75 75 75 74 74 73 72 72
65 61 59 59 56 52 53 50 50 52 53 55 55 53 52 56 62 62 65 66 68 69 71 71 72 73 73 73 76 76 76 74 74 75 75 74 74 75 75 76 77 75 75 74 73 73 73 75 75
65 60 56 58 57 51 50 49 51 54 53 54 54 54 55 57 60 61 63 64 64 67 69 71 71 72 72 73 73 76 75 74 73 73 73 74 71 72 73 75 75 75 74 73 73 73 75 76 77
62 58 55 57 61 54 51 48 49 50 52 53 53 54 55 56 58 59 60 59 63 65 66 68 69 71 71 71 73 72 71 71 71 72 71 72 71 71 72 74 74 74 74 73 73 75 76 75 72
63 57 63 60 60 61 50 54 54 48 50 52 53 53 54 55 57 57 57 60 62 63 64 63 66 69 68 70 71 71 71 73 73 72 72 72 72 72 71 71 71 72 73 71 73 72 72 71 70
56 60 63 63 63 57 57 57 55 50 52 53 54 54 54 55 55 56 59 59 57 59 59 62 65 66 68 71 73 72 73 73 72 71 71 72 71 71 71 71 70 70 70 71 68 69 69 69 70
54 56 59 58 58 57 58 58 55 51 53 53 53 54 54 54 55 55 57 57 58 59 63 67 70 69 68 71 73 72 71 73 72 71 73 73 71 71 70 70 71 70 70 71 68 68 68 68 66
56 54 56 60 57 57 58 59 57 53 52 52 53 53 53 54 55 55 56 57 60 64 66 68 70 71 70 69 70 71 70 70 72 71 72 71 72 72 72 71 70 69 69 69 69 68 68 67 67
55 55 58 59 57 59 58 59 55 53 51 51 51 52 53 53 55 55 57 57 60 64 67 68 68 71 71 72 72 70 71 71 70 71 73 72 71 71 70 70 70 69 71 68 69 70 71 70 66
52 57 55 59 59 57 55 56 61 59 50 50 50 50 52 53 54 55 58 58 60 64 66 65 67 70 71 71 73 73 71 71 71 73 72 72 71 72 71 68 69 68 67 68 68 68 69 69 66
48 48 54 58 56 57 54 56 60 54 51 50 50 49 50 51 54 56 59 59 61 65 66 66 67 68 71 73 73 72 71 70 71 71 72 70 70 72 72 68 68 69 68 69 69 69 70 65 66
40 46 52 52 52 54 54 56 57 51 50 50 50 50 50 52 53 55 56 59 65 66 66 67 68 68 72 72 71 72 74 71 70 71 71 72 72 72 72 72 69 70 72 70 72 68 66 68 69
38 39 49 50 50 51 51 55 57 54 49 48 48 51 51 50 53 54 55 59 65 65 65 68 69 70 71 71 71 71 69 72 70 70 71 71 72 72 73 72 71 73 73 72 68 66 65 66 69
30 40 39 42 50 50 50 53 57 55 54 48 48 51 52 52 50 52 54 59 63 65 66 70 70 72 70 71 71 70 71 71 70 71 71 74 71 72 72 72 70 71 74 69 68 70 70 71 68
27 33 40 41 44 47 48 53 55 55 55 51 49 51 51 53 50 51 53 57 62 65 67 70 69 71 72 70 72 73 73 72 71 72 73 73 73 73 72 73 71 73 73 71 70 70 70 67 70
25 27 31 45 44 44 41 37 52 54 53 55 53 51 50 52 54 54 55 56 63 66 68 71 71 71 71 74 71 70 70 68 69 70 71 71 74 72 73 71 74 73 73 72 71 71 71 70 65
25 27 26 36 43 40 38 36 37 51 51 55 54 53 51 51 55 55 54 56 63 65 68 71 71 71 69 72 72 71 70 68 69 70 71 72 72 71 72 71 72 71 72 73 73 72 70 70 71
23 26 25 27 41 37 37 36 35 47 50 53 55 55 53 51 54 56 55 58 63 65 67 68 71 70 71 72 73 71 71 68 70 69 69 70 71 72 72 71 72 73 73 70 70 72 72 72 72
7 21 23 24 29 34 36 35 35 47 51 54 55 55 55 55 53 55 57 59 61 64 66 68 72 70 70 73 73 72 72 72 70 68 68 69 70 71 73 73 73 74 74 73 71 72 72 73 71
5 18 23 23 26 31 34 33 32 44 46 54 55 56 56 55 53 55 57 58 60 63 66 68 70 71 70 73 72 72 73 73 73 72 70 68 69 69 73 74 75 74 75 75 72 73 71 71 73
3 5 20 22 22 23 30 33 35 43 45 47 54 55 55 56 55 54 56 58 58 62 65 68 69 70 71 72 72 73 74 73 73 73 71 71 72 70 73 74 75 75 76 75 75 74 73 70 70
2 4 16 22 20 21 26 31 32 38 40 44 49 55 56 56 56 53 55 58 58 60 64 68 70 70 72 71 73 73 73 74 73 75 73 71 73 73 75 75 75 75 74 75 75 75 75 72 72
6 3 6 20 25 23 24 28 34 35 38 42 48 54 56 57 56 55 55 57 58 58 62 68 69 70 71 71 73 72 73 74 74 74 73 74 72 76 74 74 74 75 73 75 75 74 73 74 73
12 7 10 18 24 26 25 22 37 38 44 37 42 55 57 58 57 57 55 57 57 57 59 65 69 70 70 71 71 72 73 73 73 74 73 74 74 75 75 74 74 74 74 74 74 73 72 73 74
Lifted_Index
-0 -1 -2 -3 -3 -2 -2 -2 -2 -2 -2 -1 -1 -2 -2 -2 -2 -3 -4 -4 -4 -4 -5 -6 -6 -6 -5 -5 -6 -6 -5 -5 -5 -5 -5 -5 -5 -5 -5 -5 -5 -5 -5 -5 -5 -5 -5 -5 -4
-1 -2 -3 -3 -3 -2 -2 -2 -2 -2 -1 -1 -1 -1 -2 -2 -2 -3 -3 -3 -3 -4 -4 -5 -6 -5 -5 -5 -5 -5 -5 -5 -5 -5 -5 -5 -5 -5 -5 -5 -5 -5 -5 -5 -5 -5 -5 -5 -4
-3 -3 -3 -3 -2 -1 -2 -2 -3 -2 -1 -1 -0 -0 -1 -2 -2 -2 -2 -2 -3 -3 -4 -5 -5 -5 -5 -4 -5 -5 -4 -4 -4 -4 -4 -5 -5 -5 -5 -5 -5 -5 -5 -5 -5 -5 -4 -4 -4
-3 -3 -3 -2 -2 -1 -2 -2 -2 -2 -1 -0 0 0 -0 -1 -2 -2 -2 -2 -3 -3 -4 -4 -5 -4 -4 -4 -4 -4 -4 -4 -4 -4 -4 -4 -5 -5 -5 -5 -5 -5 -5 -5 -5 -4 -4 -3 -3
-3 -2 -2 -2 -2 -2 -2 -2 -2 -1 -0 0 0 1 1 -1 -1 -1 -2 -2 -2 -3 -4 -4 -4 -4 -4 -4 -4 -4 -4 -4 -4 -4 -4 -4 -5 -5 -5 -5 -5 -5 -6 -5 -5 -4 -3 -2 -2
-2 -2 -2 -2 -2 -2 -2 -2 -1 -0 0 0 1 1 1 0 -1 -1 -1 -1 -2 -3 -3 -4 -4 -4 -4 -4 -4 -4 -4 -4 -4 -4 -4 -4 -4 -5 -5 -5 -5 -5 -5 -5 -4 -3 -3 -2 -2
-2 -1 -2 -3 -2 -2 -2 -2 -0 0 1 1 1 2 2 1 -0 -1 -1 -1 -1 -2 -2 -3 -3 -4 -3 -3 -3 -3 -3 -3 -3 -3 -4 -4 -4 -4 -4 -5 -5 -5 -5 -4 -4 -3 -3 -2 -2
-2 -1 -2 -2 -3 -2 -2 -1 0 1 1 1 1 2 2 1 1 -0 -0 0 -0 -1 -2 -2 -3 -3 -3 -3 -3 -3 -3 -3 -3 -3 -3 -3 -3 -4 -4 -5 -5 -5 -4 -4 -3 -3 -3 -3 -3
-2 -1 -1 -2 -2 -2 -1 -0 1 1 1 1 1 2 2 2 1 0 0 1 1 -0 -1 -1 -2 -2 -2 -3 -3 -3 -3 -3 -2 -2 -3 -3 -3 -3 -4 -4 -4 -4 -4 -3 -3 -3 -3 -3 -3
-2 -1 -1 -1 -2 -2 -1 -0 0 1 1 1 2 2 2 2 1 1 1 1 0 0 0 -0 -1 -2 -2 -2 -3 -2 -2 -2 -2 -2 -2 -2 -3 -3 -3 -4 -4 -3 -3 -3 -3 -3 -3 -3 -3
-2 -1 -1 -1 -2 -2 -1 -1 -0 1 1 2 2 2 2 1 1 1 1 1 0 1 1 0 -1 -1 -1 -2 -2 -2 -2 -2 -2 -1 -2 -2 -3 -3 -2 -2 -2 -2 -2 -2 -2 -2 -2 -2 -2
-1 -2 -2 -2 -2 -2 -2 -2 -0 1 1 1 2 2 2 2 2 1 1 1 1 1 1 0 -1 -1 -1 -2 -2 -2 -2 -2 -2 -1 -2 -2 -2 -2 -1 -1 -1 -1 -1 -1 -1 -1 -2 -2 -2
-1 -2 -2 -3 -3 -3 -3 -2 -0 1 1 1 2 2 2 2 2 2 1 1 1 1 0 -1 -1 -1 -1 -1 -2 -2 -2 -2 -2 -2 -2 -2 -2 -2 -1 -1 -1 -1 -1 -1 -1 -1 -2 -2 -2
-1 -1 -2 -3 -3 -3 -3 -2 -1 1 1 1 1 2 2 2 2 2 1 1 1 -0 -1 -1 -1 -1 -1 -1 -1 -2 -2 -2 -2 -2 -2 -2 -2 -2 -1 -1 -1 -1 -1 -1 -2 -2 -2 -2 -2
-1 -1 -2 -2 -2 -2 -2 -2 -1 1 1 1 1 2 2 2 2 2 1 1 0 -1 -1 -1 -1 -2 -2 -2 -2 -2 -2 -2 -2 -2 -2 -2 -2 -2 -2 -1 -1 -1 -1 -1 -2 -2 -2 -2 -2
-1 -1 -2 -2 -2 -2 -2 -2 -2 -0 1 2 2 2 2 2 2 2 1 1 0 -0 -1 -1 -1 -2 -2 -2 -2 -2 -2 -2 -2 -2 -2 -2 -2 -2 -2 -1 -1 -1 -1 -1 -1 -2 -2 -2 -1
-1 -1 -2 -2 -2 -2 -3 -2 -2 -1 1 2 2 2 2 2 2 2 1 1 0 -0 -1 -1 -1 -2 -2 -3 -2 -3 -3 -3 -2 -2 -2 -2 -2 -3 -3 -2 -1 -1 -2 -2 -2 -2 -2 -2 -2
-1 -1 -2 -2 -2 -2 -2 -2 -2 -1 -0 1 2 2 2 2 2 2 2 1 -0 -1 -1 -1 -1 -2 -2 -3 -3 -3 -3 -3 -2 -2 -2 -2 -3 -3 -4 -3 -2 -2 -3 -3 -3 -2 -2 -2 -2
0 -0 -1 -2 -2 -2 -2 -2 -2 -2 -1 -0 1 2 2 2 2 2 2 1 -0 -1 -1 -2 -2 -2 -2 -3 -3 -3 -3 -3 -3 -2 -3 -3 -3 -4 -4 -4 -3 -3 -4 -4 -3 -2 -2 -2 -3
2 1 -0 -1 -2 -2 -3 -3 -3 -3 -2 -1 0 1 1 1 2 2 2 1 -0 -1 -1 -2 -3 -3 -3 -3 -3 -3 -3 -3 -3 -3 -3 -4 -4 -4 -4 -4 -4 -4 -5 -4 -3 -3 -3 -3 -3
3 2 0 -1 -1 -2 -3 -3 -3 -3 -2 -2 -1 0 1 1 1 2 2 2 0 -1 -2 -3 -3 -3 -3 -3 -3 -4 -4 -4 -3 -3 -4 -4 -4 -4 -4 -4 -4 -5 -5 -4 -3 -3 -3 -3 -3
3 2 1 -1 -1 -2 -2 -2 -3 -3 -2 -2 -2 -1 1 1 1 1 2 1 0 -1 -2 -3 -3 -3 -3 -4 -4 -4 -4 -3 -4 -4 -4 -4 -4 -4 -4 -4 -4 -4 -4 -4 -4 -4 -3 -3 -4
3 2 1 -0 -1 -1 -1 -1 -2 -2 -2 -2 -2 -2 -0 1 1 1 1 1 -0 -1 -2 -3 -3 -3 -3 -4 -4 -4 -4 -3 -3 -4 -4 -4 -4 -4 -4 -4 -4 -4 -4 -3 -3 -3 -3 -4 -4
3 2 1 0 -0 -0 -1 -1 -1 -2 -3 -3 -3 -2 -1 0 1 1 1 0 -0 -1 -2 -3 -3 -3 -3 -4 -4 -4 -4 -4 -4 -4 -4 -4 -4 -4 -4 -3 -3 -3 -3 -3 -3 -3 -3 -4 -4
2 1 1 0 0 0 0 -0 -0 -2 -3 -3 -3 -3 -2 -0 1 1 1 0 -1 -2 -2 -3 -4 -3 -3 -4 -5 -4 -4 -4 -4 -4 -3 -3 -3 -3 -3 -3 -3 -3 -3 -3 -3 -3 -3 -3 -4
2 1 1 0 0 0 0 0 -0 -1 -3 -3 -3 -3 -2 -1 -0 1 1 0 -0 -2 -3 -3 -4 -4 -4 -4 -5 -5 -5 -5 -5 -4 -3 -3 -3 -3 -3 -3 -4 -4 -4 -4 -3 -3 -3 -3 -3
2 1 1 0 0 0 0 0 -0 -1 -2 -3 -3 -2 -2 -2 -1 -0 0 0 -0 -1 -3 -3 -4 -4 -4 -4 -4 -4 -5 -5 -5 -5 -4 -4 -4 -4 -4 -4 -4 -4 -4 -4 -4 -4 -3 -3 -2
1 1 0 -0 -0 0 0 0 0 -1 -2 -2 -2 -2 -2 -2 -2 -1 -0 0 0 -1 -2 -4 -4 -4 -4 -4 -4 -4 -4 -5 -5 -5 -5 -4 -4 -5 -5 -5 -5 -4 -4 -4 -4 -4 -4 -3 -3
1 1 0 -0 -0 0 0 1 0 -0 -1 -1 -2 -3 -3 -3 -2 -2 -1 0 0 0 -1 -3 -4 -4 -4 -4 -4 -4 -4 -5 -5 -5 -5 -5 -5 -5 -5 -5 -5 -5 -4 -4 -5 -4 -4 -4 -4
1 1 0 -0 0 0 1 1 0 -0 -0 -1 -2 -4 -4 -3 -2 -2 -1 -0 0 0 -1 -3 -4 -4 -4 -5 -4 -4 -4 -4 -5 -5 -5 -5 -5 -5 -5 -5 -5 -5 -4 -5 -5 -4 -4 -5 -5